Flag for Italy Weather past 2 weeks in Bologna, Italy

Now
72 °F

Clear.


Feels Like: 76 °F
Forecast: 66 / 92 °F
Wind: 8 mph from Southwest

Location: Bologna / Borgo Panigale

Current Time: Aug 31, 2015 at 6:56:52 AM

Latest Report: Aug 31, 2015 at 5:50 AM


Visibility: 10 mi

Pressure: 30.04 "Hg

Humidity: 57%

Dew point: 55 °F

Location of BolognaLocation

Historic Weather in Bologna — Graph

°F

Bologna temperature yesterday

Maximum temperature yesterday: 95 °F (at 3:20 PM)
Minimum temperature yesterday: 70 °F (at 6:20 AM)
Average temperature yesterday: 83 °F

Past Weeks' High & Low Weather Summary

 TemperatureHumidityPressure
High95 °F (Aug 30, 3:20 PM)100% (Aug 24, 4:50 AM)30.18 "Hg (Aug 24, 4:50 AM)
Low59 °F (Aug 23, 5:50 AM)28% (Aug 17, 7:50 PM)29.71 "Hg (Aug 16, 6:20 PM)
Average75 °F61%29.98 "Hg
* Reported Aug 16 5:20 AM — Aug 31 5:50 AM, Bologna, Weather by CustomWeather, © 2015

Note: Actual official high and low records may vary slightly from our data, if they occured in-between our weather recording intervals... More about our weather records

Advertising

Bologna weather history for previous 24 hours

 ConditionsComfort  
Time TempWeatherWind HumidityBarometerVisibility
5:50 AM
Mon, Aug 31
72 °FClear.8 mph57%30.04 "Hg10 mi
5:20 AM72 °FClear.7 mph61%30.04 "Hg10 mi
4:50 AM72 °FClear.8 mph61%30.04 "Hg10 mi
4:20 AM73 °FClear.10 mph57%30.04 "Hg10 mi
3:20 AM75 °FClear.10 mph54%30.04 "Hg10 mi
2:50 AM75 °FClear.8 mph57%30.04 "Hg10 mi
1:50 AM77 °FClear.8 mph54%30.07 "Hg10 mi
1:20 AM77 °FClear.8 mph54%30.07 "Hg10 mi
12:50 AM79 °FClear.8 mph51%30.07 "Hg10 mi
12:20 AM79 °FClear.9 mph51%30.07 "Hg10 mi
11:50 PM
Sun, Aug 30
79 °FClear.8 mph54%30.07 "Hg10 mi
11:20 PM79 °FClear.6 mph54%30.07 "Hg10 mi
10:50 PM79 °FClear.2 mph61%30.07 "Hg10 mi
10:20 PM81 °FPassing clouds.3 mph54%30.07 "HgN/A
9:20 PM82 °FClear.6 mph62%30.07 "Hg10 mi
8:50 PM84 °FSunny.6 mph55%30.07 "Hg10 mi
8:20 PM86 °FPassing clouds.5 mph38%30.07 "HgN/A
7:50 PM90 °FSunny.3 mph33%30.04 "Hg10 mi
7:20 PM91 °FSunny.5 mph30%30.04 "Hg10 mi
6:50 PM93 °FPassing clouds.6 mph28%30.04 "HgN/A
6:20 PM93 °FPassing clouds.6 mph30%30.04 "HgN/A
5:50 PM95 °FPassing clouds.3 mph30%30.04 "HgN/A
5:20 PM95 °FPassing clouds.6 mph28%30.04 "HgN/A
4:50 PM95 °FSunny.3 mph30%30.04 "Hg10 mi
4:20 PM95 °FPassing clouds.6 mph30%30.07 "HgN/A
3:50 PM93 °FPassing clouds.6 mph34%30.07 "HgN/A
3:20 PM95 °FSunny.3 mph34%30.07 "Hg10 mi
2:50 PM93 °FSunny.3 mph34%30.09 "Hg10 mi
2:20 PM93 °FSunny.5 mph36%30.09 "Hg10 mi
1:50 PM91 °FSunny.6 mph38%30.09 "Hg10 mi
1:20 PM91 °FSunny.5 mph41%30.09 "Hg10 mi
12:50 PM90 °FSunny.6 mph43%30.12 "Hg10 mi
12:20 PM90 °FPassing clouds.5 mph43%30.12 "HgN/A
11:50 AM88 °FSunny.6 mph46%30.12 "Hg10 mi
11:20 AM88 °FPassing clouds.5 mph49%30.12 "HgN/A
10:50 AM86 °FPassing clouds.7 mph49%30.12 "HgN/A
10:20 AM84 °FPassing clouds.7 mph48%30.12 "HgN/A
9:50 AM81 °FPassing clouds.6 mph54%30.15 "HgN/A
9:20 AM79 °FPassing clouds.5 mph61%30.15 "HgN/A
8:50 AM77 °FPassing clouds.6 mph61%30.15 "HgN/A
8:20 AM75 °FSunny.6 mph65%30.15 "Hg10 mi
7:50 AM72 °FSunny.6 mph73%30.15 "Hg10 mi
7:20 AM72 °FPassing clouds.7 mph69%30.15 "HgN/A
6:50 AM70 °FPassing clouds.6 mph73%30.15 "HgN/A
6:20 AM70 °FPassing clouds.6 mph73%30.12 "HgN/A
Weather by CustomWeather, © 2015

See weather overviewHow to use our weather pages